DW6455 Orivesi FI current weather conditions

sailwx.info

Wind from 355 at 3 knots gusting 3

Air temperature 15.6° C
Dewpoint 11.1° C

Last reported at 2017-Jul-20 16:07 UTC.
Time now 2017-Jul-20 16:32 UTC

Location: N 61°39' E 024°21'.
View on Google Maps.

See reports from other nearby stations

  
Tides and Currents Weather Stations Pressure Air Temp Water Temp Dewpoint Dewpoint Depression Visibility Wind Speed Wind Dir Waves Ship Positions
date/time (UTC)wind fromknots sea level pressurealtimeterstation pressurevisibilityair tempwater tempwave heightnotes
2017-Jul-20 16:07 355 3 gusting 3 15.6
2017-Jul-20 16:02 15.6
2017-Jul-20 15:57 346 0 gusting 3 16.1
2017-Jul-20 15:52 323 16.1
2017-Jul-20 15:47 323 0 gusting 7 16.1
2017-Jul-20 15:42 323 1 gusting 7 16.1
2017-Jul-20 15:37 347 1 gusting 6 16.7
2017-Jul-20 15:32 16.7
2017-Jul-20 15:27 022 2 gusting 6 16.7
2017-Jul-20 15:22 022 2 gusting 6 16.7
2017-Jul-20 15:17 005 1 gusting 4 16.7
2017-Jul-20 15:12 337 0 gusting 4 16.7
2017-Jul-20 15:07 337 0 gusting 6 16.1
2017-Jul-20 15:02 011 0 gusting 6 16.1
2017-Jul-20 14:57 010 1 gusting 6 16.1
2017-Jul-20 14:52 302 1 gusting 6 16.1
2017-Jul-20 14:47 059 1 gusting 6 16.1
2017-Jul-20 14:42 015 2 gusting 6 16.7
2017-Jul-20 14:37 332 2 gusting 6 16.7
2017-Jul-20 14:32 005 2 gusting 6 16.7
2017-Jul-20 14:27 023 1 gusting 6 16.7
2017-Jul-20 14:22 17.2
2017-Jul-20 14:17 17.2
2017-Jul-20 14:12 325 0 gusting 4 17.2
2017-Jul-20 14:07 005 1 gusting 4 17.2
2017-Jul-20 14:02 005 1 gusting 4 17.2
2017-Jul-20 13:57 355 1 gusting 5 17.2
2017-Jul-20 13:52 355 1 gusting 5 17.2
2017-Jul-20 13:47 326 1 gusting 3 17.2
2017-Jul-20 13:42 299 0 gusting 3 17.2
2017-Jul-20 13:37 304 0 gusting 4 17.2
2017-Jul-20 13:32 342 0 gusting 4 16.7
2017-Jul-20 13:27 342 1 gusting 4 16.7
2017-Jul-20 13:22 325 1 gusting 4 16.7
2017-Jul-20 13:07 333 0 gusting 3 15.6
2017-Jul-20 13:02 350 0 gusting 3 15.6
2017-Jul-20 12:57 317 0 gusting 3 15.6
2017-Jul-20 12:52 317 0 gusting 3 15.0
2017-Jul-20 12:47 317 0 gusting 5 15.0
2017-Jul-20 12:42 317 0 gusting 5 15.0
2017-Jul-20 12:37 317 1 gusting 6 15.6
2017-Jul-20 12:32 281 1 gusting 6 15.6
2017-Jul-20 12:27 340 2 gusting 5 15.6
2017-Jul-20 12:22 337 2 gusting 5 16.1
2017-Jul-20 12:17 350 1 gusting 4 16.1
2017-Jul-20 12:12 009 0 gusting 4 16.1
2017-Jul-20 12:07 295 0 gusting 3 16.1
2017-Jul-20 12:02 295 0 gusting 3 16.1
2017-Jul-20 11:57 295 0 gusting 3 16.1
2017-Jul-20 11:52 294 0 gusting 3 16.7
2017-Jul-20 11:47 294 0 gusting 2 16.1
2017-Jul-20 11:42 294 0 gusting 2 16.1
2017-Jul-20 11:37 311 16.1
2017-Jul-20 11:32 311 15.6
2017-Jul-20 11:27 311 15.6
2017-Jul-20 11:22 311 0 gusting 4 15.6
2017-Jul-20 11:17 292 1 gusting 5 15.6
2017-Jul-20 11:12 355 1 gusting 5 15.0
2017-Jul-20 11:07 349 2 gusting 4 15.0
2017-Jul-20 11:02 315 2 gusting 4 15.0
2017-Jul-20 10:57 15.0
2017-Jul-20 10:52 355 0 gusting 2 15.0
2017-Jul-20 10:47 315 0 gusting 7 15.0
2017-Jul-20 10:42 315 15.0
2017-Jul-20 10:37 315 0 gusting 6 15.0
2017-Jul-20 10:32 315 2 gusting 6 15.0
2017-Jul-20 10:27 005 2 gusting 6 15.0
2017-Jul-20 10:22 323 2 gusting 6 15.0
2017-Jul-20 10:17 308 1 gusting 5 15.0
2017-Jul-20 10:12 346 0 gusting 5 15.0
2017-Jul-20 10:07 346 1 gusting 3 15.0
2017-Jul-20 10:02 342 0 gusting 3 15.0
2017-Jul-20 09:57 334 1 gusting 3 15.0
2017-Jul-20 09:52 334 0 gusting 3 15.0
2017-Jul-20 09:47 342 0 gusting 6 15.0
2017-Jul-20 09:42 350 0 gusting 6 15.0
2017-Jul-20 09:37 351 1 gusting 7 15.0
2017-Jul-20 09:32 355 1 gusting 7 15.0
2017-Jul-20 09:27 344 3 gusting 7 15.0
2017-Jul-20 09:22 342 3 gusting 7 15.6
2017-Jul-20 09:17 031 2 gusting 8 15.6
2017-Jul-20 09:12 010 4 gusting 8 15.0
2017-Jul-20 09:07 041 3 gusting 6 15.0
2017-Jul-20 09:02 355 2 gusting 6 15.0
2017-Jul-20 08:57 049 2 gusting 11 15.0
2017-Jul-20 08:52 037 2 gusting 11 15.0
2017-Jul-20 08:47 063 3 gusting 11 14.4
2017-Jul-20 08:42 028 4 gusting 11 15.0
2017-Jul-20 08:37 15.0
2017-Jul-20 08:32 15.0
2017-Jul-20 08:27 020 1 gusting 9 15.0
2017-Jul-20 08:22 351 2 gusting 9 15.0
2017-Jul-20 08:17 349 4 gusting 7 15.0
2017-Jul-20 08:12 355 4 gusting 7 15.0
2017-Jul-20 08:07 15.0
2017-Jul-20 08:02 314 2 gusting 7 14.4
2017-Jul-20 07:57 321 2 gusting 7 14.4
2017-Jul-20 07:52 350 2 gusting 7 14.4
2017-Jul-20 07:47 13.9
2017-Jul-20 07:42 337 1 gusting 6 13.9
2017-Jul-20 07:37 032 2 gusting 7 13.3
2017-Jul-20 07:32 351 2 gusting 7 13.3
2017-Jul-20 07:27 355 1 gusting 7 13.3
2017-Jul-20 07:22 355 1 gusting 7 13.3
2017-Jul-20 07:17 338 2 gusting 9 13.3
2017-Jul-20 07:12 350 2 gusting 9 13.3
2017-Jul-20 07:07 350 3 gusting 9 13.3
2017-Jul-20 07:02 314 3 gusting 9 13.3
2017-Jul-20 06:57 347 3 gusting 7 13.3
2017-Jul-20 06:52 316 2 gusting 7 12.8
2017-Jul-20 06:47 331 1 gusting 7 12.8
2017-Jul-20 06:42 306 1 gusting 7 12.8
2017-Jul-20 06:37 350 1 gusting 7 12.8
2017-Jul-20 06:32 355 2 gusting 7 12.8
2017-Jul-20 06:27 011 1 gusting 3 12.8
2017-Jul-20 06:22 331 1 gusting 3 12.8
2017-Jul-20 06:17 350 1 gusting 6 12.8
2017-Jul-20 06:12 350 0 gusting 6 12.8
2017-Jul-20 06:07 350 1 gusting 6 12.8
2017-Jul-20 06:02 350 1 gusting 6 12.8
2017-Jul-20 05:57 340 1 gusting 6 12.8
2017-Jul-20 05:52 343 2 gusting 6 12.8
2017-Jul-20 05:47 331 1 gusting 5 12.8
2017-Jul-20 05:42 332 1 gusting 5 12.8
2017-Jul-20 05:37 343 0 gusting 4 12.2
2017-Jul-20 05:32 009 1 gusting 4 12.2
2017-Jul-20 05:27 12.2
2017-Jul-20 05:22 340 0 gusting 4 12.2
2017-Jul-20 05:17 339 1 gusting 3 12.2
2017-Jul-20 05:12 326 0 gusting 3 12.2
2017-Jul-20 05:07 025 0 gusting 4 12.2
2017-Jul-20 05:02 341 0 gusting 4 12.2
2017-Jul-20 04:57 341 0 gusting 6 12.2
2017-Jul-20 04:52 341 0 gusting 6 12.2
2017-Jul-20 04:47 340 1 gusting 6 11.7
2017-Jul-20 04:42 015 2 gusting 6 11.7
2017-Jul-20 04:37 014 3 gusting 6 11.7
2017-Jul-20 04:32 355 2 gusting 6 11.7
2017-Jul-20 04:27 348 2 gusting 6 11.7
2017-Jul-20 04:22 348 2 gusting 6 11.7
2017-Jul-20 04:17 010 2 gusting 5 11.7
2017-Jul-20 04:12 010 2 gusting 5 11.7
2017-Jul-20 04:07 340 2 gusting 4 11.7
2017-Jul-20 04:02 338 2 gusting 4 11.7
2017-Jul-20 03:57 026 2 gusting 4 11.7
2017-Jul-20 03:52 355 2 gusting 4 11.7
2017-Jul-20 03:47 11.7
2017-Jul-20 03:42 355 0 gusting 8 11.1
2017-Jul-20 03:37 005 1 gusting 7 11.1
2017-Jul-20 03:32 017 3 gusting 7 11.1
2017-Jul-20 03:27 026 3 gusting 7 11.1
2017-Jul-20 03:22 011 2 gusting 7 11.1
2017-Jul-20 03:17 005 3 gusting 7 11.1
2017-Jul-20 03:12 016 3 gusting 7 11.1
2017-Jul-20 03:07 011 2 gusting 5 11.1
2017-Jul-20 03:02 355 1 gusting 5 11.1
2017-Jul-20 02:57 350 1 gusting 6 11.1
2017-Jul-20 02:52 355 2 gusting 6 11.1
2017-Jul-20 02:47 350 1 gusting 6 11.1
2017-Jul-20 02:42 344 1 gusting 6 11.1
2017-Jul-20 02:37 015 1 gusting 7 11.1
2017-Jul-20 02:32 355 2 gusting 7 11.1
2017-Jul-20 02:27 005 3 gusting 6 10.6
2017-Jul-20 02:22 350 2 gusting 6 10.6
2017-Jul-20 02:17 340 1 gusting 5 10.6
2017-Jul-20 02:12 340 1 gusting 5 10.6
2017-Jul-20 02:07 005 1 gusting 6 10.6
2017-Jul-20 02:02 005 1 gusting 6 10.6
2017-Jul-20 01:57 10.6
2017-Jul-20 01:52 332 1 gusting 6 10.6
2017-Jul-20 01:47 332 1 gusting 6 10.6
2017-Jul-20 01:42 005 0 gusting 4 10.6
2017-Jul-20 01:37 340 0 gusting 4 10.6
2017-Jul-20 01:32 350 1 gusting 6 10.6
2017-Jul-20 01:27 355 1 gusting 6 10.6
2017-Jul-20 01:22 355 1 gusting 6 10.6
2017-Jul-20 01:17 347 1 gusting 6 10.6
2017-Jul-20 01:12 348 1 gusting 6 10.6
2017-Jul-20 01:07 351 1 gusting 6 10.6
2017-Jul-20 01:02 355 1 gusting 6 10.6
2017-Jul-20 00:57 10.6
2017-Jul-20 00:52 345 2 gusting 5 10.6
2017-Jul-20 00:47 355 1 gusting 5 10.6
2017-Jul-20 00:42 336 2 gusting 6 10.6
2017-Jul-20 00:37 005 1 gusting 6 10.6
2017-Jul-20 00:32 341 1 gusting 8 10.6
2017-Jul-20 00:27 013 1 gusting 8 10.6
2017-Jul-20 00:22 332 2 gusting 7 10.6
2017-Jul-20 00:17 309 2 gusting 7 10.6
2017-Jul-20 00:12 342 2 gusting 4 10.6
2017-Jul-20 00:07 309 1 gusting 4 10.6
2017-Jul-20 00:02 348 1 gusting 8 10.6
2017-Jul-19 23:57 317 1 gusting 8 10.6
2017-Jul-19 23:52 327 1 gusting 6 10.6
2017-Jul-19 23:47 329 1 gusting 6 10.6
2017-Jul-19 23:42 005 1 gusting 7 10.6
2017-Jul-19 23:37 327 1 gusting 7 10.6
2017-Jul-19 23:32 325 1 gusting 6 10.6
2017-Jul-19 23:27 344 1 gusting 6 10.6
2017-Jul-19 23:22 340 0 gusting 6 10.6
2017-Jul-19 23:17 318 0 gusting 6 10.6
2017-Jul-19 23:12 005 0 gusting 2 10.6
2017-Jul-19 23:07 325 0 gusting 2 10.6
2017-Jul-19 23:02 325 10.6
2017-Jul-19 22:57 325 0 gusting 2 10.6
2017-Jul-19 22:52 325 0 gusting 4 10.6
2017-Jul-19 22:47 325 0 gusting 4 10.6
2017-Jul-19 22:42 325 0 gusting 4 10.6
2017-Jul-19 22:37 325 0 gusting 4 10.6
2017-Jul-19 22:32 325 0 gusting 3 10.6
2017-Jul-19 22:27 327 0 gusting 3 10.6
2017-Jul-19 22:22 327 0 gusting 3 10.6
2017-Jul-19 22:17 330 0 gusting 3 10.6
2017-Jul-19 22:12 281 0 gusting 5 10.6
2017-Jul-19 22:07 281 0 gusting 5 10.6
2017-Jul-19 22:02 10.6
2017-Jul-19 21:57 348 1 gusting 5 10.6
2017-Jul-19 21:52 005 1 gusting 6 10.6
2017-Jul-19 21:47 355 1 gusting 6 10.6
2017-Jul-19 21:42 338 1 gusting 7 10.6
2017-Jul-19 21:37 342 1 gusting 7 10.6
2017-Jul-19 21:32 339 1 gusting 8 11.1
2017-Jul-19 21:27 341 1 gusting 8 11.1
2017-Jul-19 21:22 331 1 gusting 8 11.1
2017-Jul-19 21:17 336 1 gusting 8 11.1
2017-Jul-19 21:12 346 1 gusting 6 11.1
2017-Jul-19 21:07 321 0 gusting 6 11.1
2017-Jul-19 21:02 332 1 gusting 7 11.1
2017-Jul-19 20:57 336 1 gusting 7 11.1
2017-Jul-19 20:52 323 1 gusting 7 11.1
2017-Jul-19 20:47 326 2 gusting 7 11.1
2017-Jul-19 20:42 299 2 gusting 7 11.1
2017-Jul-19 20:37 317 1 gusting 7 11.1
2017-Jul-19 20:32 327 0 gusting 6 11.1
2017-Jul-19 20:27 320 1 gusting 6 10.6
2017-Jul-19 20:22 348 1 gusting 6 10.6
2017-Jul-19 20:17 307 0 gusting 6 10.6
2017-Jul-19 20:12 323 0 gusting 6 11.1
2017-Jul-19 20:07 329 0 gusting 6 11.1
2017-Jul-19 20:02 318 0 gusting 4 11.1
2017-Jul-19 19:57 309 0 gusting 4 11.1
2017-Jul-19 19:52 309 0 gusting 3 11.1
2017-Jul-19 19:47 325 0 gusting 3 11.1
2017-Jul-19 19:42 325 11.1
2017-Jul-19 19:37 325 11.1
2017-Jul-19 19:32 325 0 gusting 3 11.1
2017-Jul-19 19:27 325 0 gusting 3 11.1
2017-Jul-19 19:22 328 0 gusting 5 11.1
2017-Jul-19 19:17 323 0 gusting 5 11.1
2017-Jul-19 19:12 324 0 gusting 5 11.7
2017-Jul-19 19:07 323 0 gusting 5 11.7
2017-Jul-19 19:02 337 0 gusting 4 11.7
2017-Jul-19 18:57 344 0 gusting 4 11.7
2017-Jul-19 18:52 344 0 gusting 5 11.7
2017-Jul-19 18:47 344 0 gusting 5 11.7
2017-Jul-19 18:42 337 0 gusting 10 11.7
2017-Jul-19 18:37 337 1 gusting 10 11.7
2017-Jul-19 18:32 337 0 gusting 10 11.7
2017-Jul-19 18:27 329 1 gusting 10 11.7
2017-Jul-19 18:22 033 1 gusting 9 11.7
2017-Jul-19 18:17 329 1 gusting 9 11.7
2017-Jul-19 18:12 319 2 gusting 10 11.7
2017-Jul-19 18:07 336 2 gusting 10 11.7
2017-Jul-19 18:02 005 2 gusting 9 11.7
2017-Jul-19 17:57 355 1 gusting 9 11.7
2017-Jul-19 17:52 355 1 gusting 9 12.2
2017-Jul-19 17:47 335 1 gusting 9 12.2
2017-Jul-19 17:42 319 1 gusting 10 12.2
2017-Jul-19 17:37 318 1 gusting 10 12.2
2017-Jul-19 17:32 324 2 gusting 10 12.2
2017-Jul-19 17:27 320 2 gusting 10 12.2
2017-Jul-19 17:22 321 2 gusting 10 12.2
2017-Jul-19 17:17 326 1 gusting 10 12.2
2017-Jul-19 17:12 337 2 gusting 7 12.2
2017-Jul-19 17:07 306 2 gusting 7 12.2
2017-Jul-19 17:02 321 1 gusting 7 12.2
2017-Jul-19 16:57 296 1 gusting 7 12.2
2017-Jul-19 16:52 336 1 gusting 9 12.2
2017-Jul-19 16:47 336 1 gusting 9 12.2
2017-Jul-19 16:42 338 1 gusting 9 12.2
2017-Jul-19 16:37 355 1 gusting 9 12.2
2017-Jul-19 16:32 345 2 gusting 6 12.8
2017-Jul-19 16:27 348 1 gusting 6 12.8
2017-Jul-19 16:22 341 1 gusting 7 12.8
2017-Jul-19 16:17 339 1 gusting 7 12.8
2017-Jul-19 16:12 355 1 gusting 7 12.8
2017-Jul-19 16:07 346 1 gusting 9 12.8
2017-Jul-19 16:02 327 1 gusting 9 13.3
2017-Jul-19 15:57 350 1 gusting 9 13.3
2017-Jul-19 15:52 327 1 gusting 6 13.3
2017-Jul-19 15:47 292 1 gusting 6 13.3
2017-Jul-19 15:42 292 1 gusting 6 13.3
2017-Jul-19 15:37 355 0 gusting 6 13.3
2017-Jul-19 15:32 350 0 gusting 11 13.3
2017-Jul-19 15:27 355 1 gusting 11 13.9
2017-Jul-19 15:22 355 3 gusting 9 13.9
2017-Jul-19 15:17 310 2 gusting 9 14.4
2017-Jul-19 15:12 355 1 gusting 9 15.0
2017-Jul-19 15:07 269 1 gusting 9 15.0
2017-Jul-19 15:02 306 2 gusting 13 15.0
2017-Jul-19 14:57 317 2 gusting 13 15.0
2017-Jul-19 14:52 309 2 gusting 11 15.0
2017-Jul-19 14:47 336 3 gusting 11 15.6
2017-Jul-19 14:42 336 3 gusting 9 15.6
2017-Jul-19 14:37 325 2 gusting 9 15.6
2017-Jul-19 14:32 316 2 gusting 12 15.6
2017-Jul-19 14:27 290 3 gusting 12 15.0
2017-Jul-19 14:22 306 3 gusting 10 15.0
2017-Jul-19 14:17 316 4 gusting 10 15.0
2017-Jul-19 14:12 333 3 gusting 9 15.0
2017-Jul-19 14:07 351 3 gusting 9 14.4
2017-Jul-19 14:02 306 2 gusting 9 14.4
2017-Jul-19 13:57 303 2 gusting 9 14.4
2017-Jul-19 13:52 299 2 gusting 10 14.4
2017-Jul-19 13:47 332 3 gusting 10 14.4
2017-Jul-19 13:42 344 3 gusting 7 14.4
2017-Jul-19 13:37 318 2 gusting 7 14.4
2017-Jul-19 13:32 253 2 gusting 10 14.4
2017-Jul-19 13:27 321 2 gusting 10 14.4
2017-Jul-19 13:22 14.4
2017-Jul-19 13:17 349 2 gusting 10 14.4
2017-Jul-19 13:12 331 1 gusting 13 14.4
2017-Jul-19 13:07 317 2 gusting 13 15.0
2017-Jul-19 13:02 321 3 gusting 10 15.0
2017-Jul-19 12:57 334 4 gusting 10 14.4
2017-Jul-19 12:52 325 3 gusting 11 14.4
2017-Jul-19 12:47 294 1 gusting 11 14.4
2017-Jul-19 12:42 333 1 gusting 11 14.4
2017-Jul-19 12:37 333 3 gusting 11 13.9
2017-Jul-19 12:32 348 2 gusting 12 13.9
2017-Jul-19 12:27 314 2 gusting 12 13.9
2017-Jul-19 12:22 330 3 gusting 14 13.9
2017-Jul-19 12:17 304 3 gusting 14 13.9
2017-Jul-19 12:12 311 4 gusting 12 13.9
2017-Jul-19 12:07 323 3 gusting 12 13.9
2017-Jul-19 12:02 317 3 gusting 12 13.9
2017-Jul-19 11:57 327 4 gusting 12 13.9
2017-Jul-19 11:52 294 3 gusting 9 13.9
2017-Jul-19 11:47 265 2 gusting 9 13.9
2017-Jul-19 11:42 350 2 gusting 9 13.3
2017-Jul-19 11:37 310 3 gusting 9 13.3
2017-Jul-19 11:32 303 2 gusting 13 12.8
2017-Jul-19 11:27 325 2 gusting 13 12.8
2017-Jul-19 11:22 298 3 gusting 13 12.8
2017-Jul-19 11:17 306 3 gusting 13 12.8
2017-Jul-19 11:12 313 1 gusting 10 12.8
2017-Jul-19 11:07 293 1 gusting 10 12.8
2017-Jul-19 11:02 287 0 gusting 9 12.8
2017-Jul-19 10:57 329 0 gusting 9 12.8
2017-Jul-19 10:52 317 2 gusting 8 12.8
2017-Jul-19 10:47 313 2 gusting 8 12.8
2017-Jul-19 10:42 005 1 gusting 7 12.8
2017-Jul-19 10:37 273 2 gusting 7 12.8
2017-Jul-19 10:32 312 1 gusting 9 12.8
2017-Jul-19 10:27 319 1 gusting 9 13.3
2017-Jul-19 10:22 309 1 gusting 8 13.3
2017-Jul-19 10:17 264 1 gusting 8 13.3
2017-Jul-19 10:12 317 2 gusting 10 13.3
2017-Jul-19 10:07 315 2 gusting 10 13.3
2017-Jul-19 10:02 278 3 gusting 10 13.3
2017-Jul-19 09:57 322 3 gusting 10 13.3
2017-Jul-19 09:52 320 1 gusting 9 12.8
2017-Jul-19 09:47 314 1 gusting 9 12.8
2017-Jul-19 09:42 325 2 gusting 9 12.8
2017-Jul-19 09:37 265 2 gusting 9 12.8
2017-Jul-19 09:32 306 1 gusting 7 12.8
2017-Jul-19 09:27 12.8
2017-Jul-19 09:22 301 0 gusting 6 12.8
2017-Jul-19 09:17 316 1 gusting 6 12.2
2017-Jul-19 09:12 267 0 gusting 6 12.8
2017-Jul-19 09:07 281 0 gusting 6 12.8
2017-Jul-19 09:02 300 0 gusting 4 12.8
2017-Jul-19 08:57 325 0 gusting 4 12.8
2017-Jul-19 08:52 331 0 gusting 6 12.8
2017-Jul-19 08:47 227 12.8
2017-Jul-19 08:42 273 0 gusting 6 12.8
2017-Jul-19 08:37 274 0 gusting 6 12.8
2017-Jul-19 08:32 325 0 gusting 7 12.8
2017-Jul-19 08:27 277 0 gusting 7 12.8
2017-Jul-19 08:22 263 1 gusting 6 12.8
2017-Jul-19 08:17 285 0 gusting 6 12.8
2017-Jul-19 08:12 271 1 gusting 6 12.8
2017-Jul-19 08:07 297 1 gusting 6 12.8
2017-Jul-19 08:02 309 0 gusting 6 12.8
2017-Jul-19 07:57 284 1 gusting 6 12.8
2017-Jul-19 07:52 284 0 gusting 6 12.8
2017-Jul-19 07:47 259 0 gusting 6 12.8
2017-Jul-19 07:42 238 0 gusting 5 12.8
2017-Jul-19 07:37 343 0 gusting 5 12.8
2017-Jul-19 07:32 333 0 gusting 8 12.8
2017-Jul-19 07:27 278 0 gusting 8 12.8
2017-Jul-19 07:22 263 1 gusting 8 12.8
2017-Jul-19 07:17 333 1 gusting 8 12.8
2017-Jul-19 07:12 311 0 gusting 5 12.8
2017-Jul-19 07:07 338 0 gusting 5 12.2
2017-Jul-19 07:02 263 0 gusting 6 12.2
2017-Jul-19 06:57 280 0 gusting 6 12.2
2017-Jul-19 06:52 298 0 gusting 1 12.2
2017-Jul-19 06:47 267 0 gusting 1 12.2
2017-Jul-19 06:42 263 11.7
2017-Jul-19 06:37 253 11.7
2017-Jul-19 06:32 253 11.7
2017-Jul-19 06:27 252 11.7
2017-Jul-19 06:22 253 0 gusting 6 11.7
2017-Jul-19 06:17 309 0 gusting 6 11.1
2017-Jul-19 06:12 260 0 gusting 4 11.1
2017-Jul-19 06:07 322 11.1
2017-Jul-19 06:02 342 11.1
2017-Jul-19 05:57 301 0 gusting 6 11.1
2017-Jul-19 05:52 286 0 gusting 3 11.1
2017-Jul-19 05:47 329 0 gusting 3 11.1
2017-Jul-19 05:42 285 11.1
2017-Jul-19 05:37 298 11.1
2017-Jul-19 05:32 290 0 gusting 5 11.1
2017-Jul-19 05:27 336 0 gusting 5 11.1
2017-Jul-19 05:22 285 0 gusting 5 11.1
2017-Jul-19 05:17 284 0 gusting 5 11.1
2017-Jul-19 05:12 279 0 gusting 5 11.1
2017-Jul-19 05:07 242 0 gusting 5 11.1
2017-Jul-19 05:02 311 0 gusting 3 10.6
2017-Jul-19 04:57 294 0 gusting 3 10.6
2017-Jul-19 04:52 298 10.6
2017-Jul-19 04:47 298 0 gusting 3 10.6
2017-Jul-19 04:42 280 0 gusting 3 10.6
2017-Jul-19 04:37 280 10.6
2017-Jul-19 04:32 287 10.6
2017-Jul-19 04:27 245 10.6
2017-Jul-19 04:22 235 10.6
2017-Jul-19 04:17 234 10.6
2017-Jul-19 04:12 235 10.6
2017-Jul-19 04:07 235 10.6
2017-Jul-19 04:02 257 10.6
2017-Jul-19 03:57 261 10.6
2017-Jul-19 03:52 271 10.6
2017-Jul-19 03:47 271 10.6
2017-Jul-19 03:42 271 10.6
2017-Jul-19 03:37 272 10.6
2017-Jul-19 03:32 271 10.6
2017-Jul-19 03:27 271 10.6
2017-Jul-19 03:22 272 10.6
2017-Jul-19 03:17 272 10.0
2017-Jul-19 03:12 271 10.6
2017-Jul-19 03:07 271 0 gusting 4 10.6
2017-Jul-19 03:02 302 10.6
2017-Jul-19 02:57 293 10.6
2017-Jul-19 02:52 299 10.6
2017-Jul-19 02:47 300 10.6
2017-Jul-19 02:42 300 10.6
2017-Jul-19 02:37 300 10.6
2017-Jul-19 02:32 291 10.6
2017-Jul-19 02:27 292 10.6
2017-Jul-19 02:22 291 10.6
2017-Jul-19 02:17 291 10.6
2017-Jul-19 02:12 294 10.6
2017-Jul-19 02:07 294 10.6
2017-Jul-19 02:02 294 10.6
2017-Jul-19 01:57 279 10.6
2017-Jul-19 01:52 280 10.6
2017-Jul-19 01:47 279 10.6
2017-Jul-19 01:42 279 10.6
2017-Jul-19 01:37 279 10.6
2017-Jul-19 01:32 279 10.6
2017-Jul-19 01:27 279 10.6
2017-Jul-19 01:22 279 10.6
2017-Jul-19 01:17 279 10.0
2017-Jul-19 01:12 275 10.0
2017-Jul-19 01:07 251 10.0
2017-Jul-19 01:02 251 10.0
2017-Jul-19 00:57 251 10.0
2017-Jul-19 00:52 252 10.0
2017-Jul-19 00:47 251 9.4
2017-Jul-19 00:42 251 9.4
2017-Jul-19 00:37 251 9.4
2017-Jul-19 00:32 251 9.4
2017-Jul-19 00:27 251 9.4
2017-Jul-19 00:22 251 9.4
2017-Jul-19 00:17 251 9.4
2017-Jul-19 00:12 251 9.4
2017-Jul-19 00:07 251 9.4
2017-Jul-19 00:02 252 9.4
2017-Jul-18 23:57 251 9.4
2017-Jul-18 23:52 251 9.4
2017-Jul-18 23:47 251 8.9
2017-Jul-18 23:42 251 8.9
2017-Jul-18 23:37 251 8.9
2017-Jul-18 23:32 251 8.9
2017-Jul-18 23:27 251 8.9
2017-Jul-18 23:22 251 8.9
2017-Jul-18 23:17 252 8.9
2017-Jul-18 23:12 251 8.9
2017-Jul-18 23:07 251 8.3
2017-Jul-18 23:02 251 8.3
2017-Jul-18 22:57 251 8.3
2017-Jul-18 22:52 252 8.3
2017-Jul-18 22:47 277 8.3
2017-Jul-18 22:42 277 8.3
2017-Jul-18 22:37 290 8.3
2017-Jul-18 22:32 286 8.3
2017-Jul-18 22:27 286 8.3
2017-Jul-18 22:22 286 8.3
2017-Jul-18 22:17 286 8.3
2017-Jul-18 22:12 286 8.3
2017-Jul-18 22:07 286 8.3
2017-Jul-18 22:02 286 8.3
2017-Jul-18 21:57 286 8.3
2017-Jul-18 21:52 286 8.3
2017-Jul-18 21:47 286 8.3
2017-Jul-18 21:42 286 0 gusting 2 8.3
2017-Jul-18 21:37 286 0 gusting 0 8.9
2017-Jul-18 21:32 286 8.9
2017-Jul-18 21:27 286 8.9
2017-Jul-18 21:22 286 8.9
2017-Jul-18 21:17 286 8.9
2017-Jul-18 21:12 286 9.4
2017-Jul-18 21:07 286 9.4
2017-Jul-18 21:02 286 9.4
2017-Jul-18 20:57 286 9.4
2017-Jul-18 20:52 286 9.4
2017-Jul-18 20:47 286 10.0
2017-Jul-18 20:42 286 10.0
2017-Jul-18 20:37 286 10.0
2017-Jul-18 20:32 286 10.0
2017-Jul-18 20:27 286 10.6
2017-Jul-18 20:22 286 10.6
2017-Jul-18 20:17 286 10.6
2017-Jul-18 20:12 286 10.6
2017-Jul-18 20:07 286 11.1
2017-Jul-18 20:02 286 11.1
2017-Jul-18 19:57 288 11.1
2017-Jul-18 19:52 288 11.1
2017-Jul-18 19:47 288 11.7
2017-Jul-18 19:42 288 11.7
2017-Jul-18 19:37 288 11.7
2017-Jul-18 19:32 288 11.7
2017-Jul-18 19:27 288 12.2
2017-Jul-18 19:22 288 12.2
2017-Jul-18 19:17 287 12.2
2017-Jul-18 19:12 286 12.2
2017-Jul-18 19:07 298 12.8
2017-Jul-18 19:02 298 12.8
2017-Jul-18 18:57 298 12.8
2017-Jul-18 18:52 298 13.3
2017-Jul-18 18:47 298 13.3
2017-Jul-18 18:42 298 13.3
2017-Jul-18 18:37 298 13.3
2017-Jul-18 18:32 298 13.9
2017-Jul-18 18:27 335 0 gusting 9 13.9
2017-Jul-18 18:22 335 0 gusting 9 13.9
2017-Jul-18 18:17 292 0 gusting 9 13.9
2017-Jul-18 18:12 314 0 gusting 9 14.4
2017-Jul-18 18:07 314 0 gusting 6 14.4
2017-Jul-18 18:02 342 14.4
2017-Jul-18 17:57 342 0 gusting 9 15.0
2017-Jul-18 17:52 298 0 gusting 9 15.0
2017-Jul-18 17:47 322 0 gusting 10 15.0
2017-Jul-18 17:42 290 1 gusting 10 15.0
2017-Jul-18 17:37 265 2 gusting 10 15.6
2017-Jul-18 17:32 302 3 gusting 10 15.6
2017-Jul-18 17:27 294 2 gusting 5 15.6
2017-Jul-18 17:22 294 1 gusting 5 15.6
2017-Jul-18 17:17 308 0 gusting 8 15.6
2017-Jul-18 17:12 286 1 gusting 8 15.6
2017-Jul-18 17:07 318 1 gusting 8 15.6
2017-Jul-18 17:02 320 0 gusting 8 15.6
2017-Jul-18 16:57 313 0 gusting 8 15.0
2017-Jul-18 16:52 280 1 gusting 8 15.0
2017-Jul-18 16:47 321 1 gusting 8 15.0
2017-Jul-18 16:42 237 2 gusting 8 15.6
2017-Jul-18 16:37 269 2 gusting 10 15.6
2017-Jul-18 16:32 314 1 gusting 10 15.6
2017-Jul-18 16:27 313 2 gusting 12 15.6
2017-Jul-18 16:22 316 2 gusting 12 15.6
2017-Jul-18 16:17 290 2 gusting 12 16.1
2017-Jul-18 16:12 289 2 gusting 12 16.1
2017-Jul-18 16:07 292 2 gusting 10 16.7
2017-Jul-18 16:02 295 2 gusting 10 16.7